GW1815 Weather Reports


Display with metric or nautical units.
time (UTC)temp
F
wind
direction
speed
MPH
gust
MPH
rain 1hr
in
rain 24hr
in
rain mn
in
humidity
%
barometer
mb
20260903071557 75 0 0.0 0.0 0.00 0.00 0.00 91 1012.6
20260903070044 76 0 0.0 0.0 0.00 0.00 0.00 91 1012.7
20260903064539 76 0 0.0 0.0 0.00 0.00 0.00 91 1012.8
20260903063046 76 0 0.0 0.0 0.00 0.00 0.00 91 1012.9
20260903061540 76 0 0.0 0.0 0.00 0.00 0.00 91 1013.0
20260903060109 76 0 0.0 0.0 0.00 0.00 0.00 91 1013.1
20260903054558 76 0 0.0 1.0 0.00 0.00 0.00 91 1013.0
20260903053038 76 0 0.0 2.0 0.00 0.00 0.00 91 1013.0
20260903051539 76 0 0.0 2.0 0.00 0.00 0.00 91 1013.0
20260903050046 76 0 0.0 2.0 0.00 0.00 0.00 90 1012.8
20260903044541 76 0 0.0 2.0 0.00 0.00 0.00 90 1012.7
20260903043038 76 0 0.0 2.0 0.00 0.00 0.00 89 1012.6
20260903041540 77 186 0.0 2.0 0.00 0.00 0.00 90 1012.7
20260903040057 77 0 0.0 3.0 0.00 0.00 0.00 89 1012.6
20260903034538 77 0 0.0 3.0 0.00 0.00 0.00 89 1012.7
20260903033038 77 173 0.0 4.0 0.00 0.00 0.00 89 1012.4
20260903031539 77 0 0.0 4.0 0.00 0.00 0.00 89 1012.5
20260903030039 78 0 1.0 4.0 0.00 0.00 0.00 88 1012.5
20260903024544 78 154 0.0 3.0 0.00 0.00 0.00 88 1012.6
20260903023052 78 0 0.0 0.0 0.00 0.00 0.00 87 1012.5
20260903021541 79 0 0.0 0.0 0.00 0.00 0.00 87 1012.4
20260903020041 79 0 0.0 0.0 0.00 0.00 0.00 86 1012.4
20260903014546 80 0 0.0 0.0 0.00 0.00 0.00 86 1012.4
20260903013048 80 0 0.0 0.0 0.00 0.00 0.00 85 1012.2
20260903011542 81 0 0.0 0.0 0.00 0.00 0.00 84 1012.2
20260903010045 81 0 0.0 0.0 0.00 0.00 0.00 83 1012.0
20260903004541 82 0 0.0 0.0 0.00 0.00 0.00 82 1011.7
20260903003040 84 0 0.0 0.0 0.00 0.00 0.00 80 1011.7
20260903001546 85 0 0.0 0.0 0.00 0.00 0.00 78 1011.7
20260903000039 86 0 0.0 1.0 0.00 0.00 0.00 77 1011.8
20260902234555 86 0 0.0 1.0 0.00 0.00 0.00 76 1011.8
20260902233039 87 0 1.0 2.0 0.00 0.00 0.00 76 1011.8
20260902231544 88 229 0.0 2.0 0.00 0.00 0.00 74 1011.9
20260902230038 89 221 0.0 2.0 0.00 0.00 0.00 71 1011.8
20260902224542 89 0 0.0 4.0 0.00 0.00 0.00 68 1011.7
20260902223040 90 266 2.0 6.0 0.00 0.00 0.00 65 1011.7
20260902221540 90 209 2.0 7.0 0.00 0.00 0.00 67 1011.8
20260902220041 91 0 1.0 4.0 0.00 0.00 0.00 67 1011.9
20260902214545 91 329 1.0 5.0 0.00 0.00 0.00 64 1012.1
20260902213038 91 281 2.0 6.0 0.00 0.00 0.00 62 1012.0
20260902211541 92 243 1.0 7.0 0.00 0.00 0.00 60 1012.1
20260902210042 93 223 2.0 8.0 0.00 0.00 0.00 60 1012.1
20260902204540 94 0 4.0 12.0 0.00 0.00 0.00 60 1012.1
20260902203040 94 145 1.0 11.0 0.00 0.00 0.00 57 1012.1
20260902201539 94 273 4.0 10.0 0.00 0.00 0.00 57 1012.2
20260902200042 94 327 3.0 9.0 0.00 0.00 0.00 56 1012.3
20260902194538 94 244 5.0 12.0 0.00 0.00 0.00 54 1012.5
20260902193038 94 306 3.0 10.0 0.00 0.00 0.00 62 1012.5
20260902191540 94 159 4.0 12.0 0.00 0.00 0.00 58 1012.6
20260902190040 94 317 1.0 8.0 0.00 0.00 0.00 58 1012.8
20260902184539 94 180 2.0 12.0 0.00 0.00 0.00 56 1012.8
20260902183041 94 150 3.0 9.0 0.00 0.00 0.00 65 1012.7
20260902181543 93 180 3.0 11.0 0.00 0.00 0.00 64 1013.0
20260902180052 92 181 4.0 8.0 0.00 0.00 0.00 69 1013.1
20260902174539 91 197 3.0 8.0 0.00 0.02 0.00 65 1013.0
20260902173041 90 198 4.0 11.0 0.00 0.02 0.00 67 1012.9
20260902171549 90 151 4.0 16.0 0.00 0.02 0.00 69 1013.0
20260902170039 89 121 3.0 12.0 0.00 0.02 0.00 70 1013.1
20260902164536 88 160 3.0 11.0 0.00 0.02 0.00 69 1013.4
20260902163039 87 0 1.0 7.0 0.00 0.02 0.00 70 1013.6
20260902161546 87 86 1.0 10.0 0.00 0.02 0.00 69 1013.7
20260902160037 87 160 3.0 7.0 0.00 0.02 0.00 73 1013.7
20260902154535 87 0 1.0 4.0 0.00 0.02 0.00 73 1013.8
20260902153038 86 192 1.0 4.0 0.00 0.02 0.00 71 1013.9
20260902151539 84 258 1.0 5.0 0.00 0.02 0.00 74 1013.8
20260902150040 83 333 0.0 3.0 0.00 0.02 0.00 73 1013.8
20260902144536 83 229 1.0 4.0 0.00 0.02 0.00 76 1014.0
20260902143039 82 310 1.0 5.0 0.00 0.02 0.00 76 1014.1
20260902141553 80 355 1.0 5.0 0.00 0.02 0.00 79 1014.2
20260902140039 80 360 0.0 5.0 0.00 0.02 0.00 79 1014.1
20260902134540 78 360 3.0 8.0 0.00 0.02 0.00 83 1014.4
20260902133035 76 300 3.0 8.0 0.00 0.02 0.00 87 1014.6
20260902131539 75 315 0.0 4.0 0.00 0.02 0.00 87 1014.5
20260902130042 75 210 3.0 9.0 0.00 0.02 0.00 89 1014.8
20260902124535 73 315 4.0 14.0 0.00 0.02 0.00 91 1014.8
20260902123036 72 261 0.0 3.0 0.00 0.02 0.00 93 1014.1
20260902121537 72 0 1.0 3.0 0.00 0.02 0.00 93 1014.0
20260902120036 71 321 2.0 5.0 0.00 0.02 0.00 93 1013.8
20260902114604 71 211 0.0 4.0 0.00 0.02 0.00 93 1013.5
20260902113047 71 183 1.0 5.0 0.00 0.02 0.00 93 1013.5
20260902111537 71 0 1.0 4.0 0.00 0.02 0.00 92 1013.5
20260902110041 71 0 0.0 5.0 0.00 0.02 0.00 92 1013.5
20260902104541 71 0 0.0 3.0 0.00 0.02 0.00 92 1013.5
20260902103035 72 0 1.0 7.0 0.00 0.02 0.00 92 1013.6
20260902101535 72 225 0.0 5.0 0.00 0.02 0.00 93 1013.5
20260902100040 72 0 1.0 6.0 0.00 0.02 0.00 92 1013.7
20260902094540 72 209 1.0 4.0 0.00 0.02 0.00 92 1013.7
20260902093037 72 172 1.0 5.0 0.00 0.02 0.00 92 1013.5
20260902091546 72 0 2.0 5.0 0.00 0.02 0.00 92 1013.7
20260902090050 72 0 1.0 5.0 0.00 0.02 0.00 92 1013.7
20260902084538 72 244 1.0 5.0 0.00 0.02 0.00 92 1013.6
20260902083033 72 0 0.0 3.0 0.00 0.02 0.00 92 1013.5
20260902081543 73 0 0.0 3.0 0.00 0.02 0.00 92 1013.5
20260902080038 73 218 1.0 3.0 0.00 0.02 0.00 92 1013.6
20260902074545 73 0 0.0 3.0 0.00 0.02 0.00 92 1013.6
20260902073038 73 0 0.0 4.0 0.00 0.02 0.00 91 1013.5